Quillayute, WA
on Monday, November 26, 2012

Monday
Previous Day Next Day
Daily Summary
 ActualAverageRecord
Temperature
Mean Temperature °F 42°F  
Max Temperature 49°F 48°F 58°F (1992)
Min Temperature 31°F 36°F 25°F (1976)
Degree Days
Heating Degree Days 25 23  
Month to date heating degree days 532  
Since 1 July heating degree days 1622  
Cooling Degree Days 0 0  
Month to date cooling degree days 0  
Year to date cooling degree days 19  
Moisture
Dew Point 34°F   
Average Humidity 81    
Maximum Humidity 93    
Minimum Humidity 61    
Precipitation
Precipitation 0.00 in 0.52 in 1.81 in (1983)
Month to date precipitation 13.43  
Year to date precipitation 84.46  
Wind
Wind Speed 6 mph   
Max Wind Speed 13 mph   
Max Gust Speed 16 mph   
Visibility 6 miles   
Events     

Key: T is trace of precipitation, MM is missing value
Source: NWS Daily Summary
Time(PST)TemperatureDew PointHumidity Pressure Visibility Wind DirectionWind SpeedGust SpeedPrecipitationEvents Conditions
12:53 AM 34.0°F 32.0°F 92% 30.17 in 6.0 miles East 3.5 mph - N/A   Clear
1:53 AM 35.1°F 33.1°F 92% 30.14 in 6.0 miles NE 6.9 mph - N/A   Clear
2:53 AM 36.0°F 34.0°F 93% 30.15 in 6.0 miles NE 5.8 mph - N/A   Clear
3:53 AM 37.0°F 34.0°F 89% 30.14 in 6.0 miles NE 5.8 mph - N/A   Clear
4:53 AM 37.0°F 34.0°F 89% 30.13 in 6.0 miles NE 6.9 mph - N/A   Clear
5:53 AM 37.9°F 35.1°F 89% 30.12 in 6.0 miles ENE 6.9 mph - N/A   Clear
6:53 AM 37.0°F 34.0°F 89% 30.09 in 7.0 miles ENE 6.9 mph - N/A   Clear
7:53 AM 37.0°F 34.0°F 89% 30.07 in 6.0 miles ENE 6.9 mph - N/A   Clear
8:53 AM 37.9°F 34.0°F 86% 30.07 in 6.0 miles ENE 6.9 mph - N/A   Clear
9:53 AM 42.1°F 35.1°F 76% 30.07 in 6.0 miles NE 6.9 mph - N/A   Haze
10:53 AM 45.0°F 36.0°F 71% 30.06 in 6.0 miles NE 5.8 mph - N/A   Haze
11:53 AM 46.9°F 36.0°F 66% 30.05 in 6.0 miles ENE 6.9 mph - N/A   Haze
12:53 PM 48.0°F 36.0°F 63% 30.04 in 6.0 miles ENE 8.1 mph - N/A   Haze
1:53 PM 48.9°F 36.0°F 61% 30.02 in 6.0 miles NE 9.2 mph - N/A   Haze
2:53 PM 46.9°F 36.0°F 66% 30.01 in 6.0 miles NE 6.9 mph - N/A   Haze
3:53 PM 43.0°F 35.1°F 74% 30.01 in 6.0 miles ENE 6.9 mph - N/A   Haze
4:53 PM 41.0°F 34.0°F 76% 30.02 in 7.0 miles ENE 4.6 mph - N/A   Clear
5:53 PM 39.9°F 34.0°F 79% 30.02 in 7.0 miles East 4.6 mph - N/A   Clear
6:53 PM 39.0°F 34.0°F 82% 30.01 in 7.0 miles East 4.6 mph - N/A   Clear
7:53 PM 37.9°F 33.1°F 83% 30.02 in 7.0 miles East 3.5 mph - N/A   Clear
8:53 PM 37.0°F 33.1°F 86% 30.04 in 7.0 miles ESE 3.5 mph - N/A   Clear
9:53 PM 35.1°F 33.1°F 92% 30.05 in 7.0 miles Calm Calm - N/A   Clear
10:53 PM 35.1°F 33.1°F 92% 30.05 in 7.0 miles East 3.5 mph - N/A   Clear
11:53 PM 35.1°F 33.1°F 92% 30.04 in 7.0 miles East 8.1 mph - N/A   Clear
Moon Phase
Nov. 26 Nov. 28 Dec. 06 Dec. 13 Dec. 20
Sunrise:07:41 AM (PST) Moon Rise:03:29 PM (PST)
Sunset:04:30 PM (PST) Moon Set:05:52 AM (PST)

Copyright © 2014 The Weather Underground, Inc.